#timestamp,LO_Frequency,Hit,StdDev 
1567278015.3,286047000.4,N
1567278035.1,286047000.0,N
1567278055.9,286047000.2,N
1567278075.7,286047000.1,N
1567278095.5,286047002.7,Y
1567278115.4,286046999.8,P
1567278135.2,286047002.4,P
1567278155.1,286047002.6,N
1567278156.0,286047002.6,N
1567278175.8,286047002.0,N
1567278195.6,286047002.5,N
1567278215.5,286047000.1,N
1567278235.3,286046999.8,N
1567278255.1,286047000.3,N
1567278275.9,286046999.7,N
1567278295.7,286046999.9,N
1567278315.6,286047000.1,N
1567278335.4,286046999.7,N
1567278355.2,286047002.4,N
1567278375.1,286047002.7,N
1567278376.0,286047002.7,N
1567278395.8,286046999.7,N
1567278415.7,286047000.1,N
1567278435.5,286047002.8,N
1567278455.3,286047002.5,N
1567278475.2,286046999.9,N
1567278495.0,286047000.2,N
1567278495.9,286047000.2,N
1567278515.8,286047001.8,N
1567278535.6,286047002.5,N
1567278555.4,286047000.3,N
1567278575.3,286047000.2,N
1567278595.1,286047000.0,N
1567278615.8,286047002.8,N
1567278635.7,286047002.5,N
1567278655.5,286046999.7,N
1567278675.4,286047002.8,N
1567278695.2,286047002.1,N
1567278715.0,286047001.7,N
1567278715.9,286047001.7,N
1567278735.8,286047004.0,Y
1567278755.6,286047002.3,P
1567278775.5,286047002.4,P
1567278795.3,286047002.4,P
1567278815.1,286047000.1,N
1567278835.9,286047000.4,N
1567278855.7,286047002.4,N
1567278875.5,286047002.3,N
1567278895.4,286047002.2,N
1567278915.2,286047002.1,N
1567278935.1,286047002.3,N
1567278936.0,286047002.3,N
1567278955.8,286047002.6,Y
1567278975.6,286046998.3,P
1567278995.5,286046999.4,N
1567279015.3,286046999.6,N
1567279035.2,286046998.7,N
1567279055.9,286046999.2,N
1567279075.7,286046999.6,N
1567279095.6,286046999.2,N
1567279115.4,286046999.3,N
1567279135.3,286046999.2,N
1567279155.1,286046998.7,N
1567279156.0,286046998.7,N
1567279175.8,286046999.5,N
1567279195.7,286046996.5,Y
1567279215.5,286046998.8,P
1567279235.4,286046998.7,P
1567279255.2,286046999.0,P
1567279275.0,286046998.8,Y
1567279275.9,286046998.8,P
1567279295.8,286047001.1,P
1567279315.6,286047000.7,N
1567279335.5,286047000.6,N
1567279355.3,286047000.7,N
1567279375.1,286047000.0,N
1567279395.9,286047000.5,N
1567279415.7,286047000.7,N
1567279435.5,286047000.5,N
1567279455.4,286047000.5,N
1567279475.2,286047001.0,N
1567279495.1,286046998.4,N
1567279496.0,286046998.4,N
1567279515.8,286046998.3,N
1567279535.6,286046998.7,N
1567279555.5,286046996.5,Y
1567279575.3,286046999.0,P
1567279595.1,286046999.4,N
1567279615.9,286046998.1,P
1567279635.7,286046998.7,N
1567279655.6,286046999.3,N
1567279675.4,286046996.8,Y
1567279695.2,286046998.4,P
1567279715.1,286046996.9,P
1567279716.0,286046996.9,P
1567279735.8,286046996.7,Y
1567279755.7,286047000.5,P
1567279775.5,286046998.5,N
1567279795.3,286046998.9,N
1567279815.2,286046998.7,N
1567279835.0,286046998.3,N
1567279835.9,286046998.3,N
1567279855.8,286046998.5,N
1567279875.6,286046998.4,N
1567279895.4,286046999.2,N
1567279915.3,286046998.3,N
1567279935.1,286046998.4,N
1567279955.9,286047000.3,N
1567279975.7,286047001.1,N
1567279995.5,286047002.4,N
1567280015.4,286047002.4,N
1567280035.2,286047002.4,N
1567280055.1,286047002.4,N
1567280056.0,286047002.4,N
1567280075.8,286047000.4,N
1567280095.6,286046999.8,N
1567280115.5,286047000.9,N
1567280135.4,286046999.8,N
1567280155.3,286047002.8,N
1567280175.1,286046999.8,N
1567280195.9,286047000.2,N
1567280215.7,286047002.4,N
1567280235.5,286047002.2,N
1567280255.4,286047002.1,N
1567280275.2,286047002.2,N
1567280295.0,286047002.4,N
1567280295.9,286047002.4,N
1567280315.8,286047001.5,N
1567280335.6,286047001.6,N
1567280355.5,286047001.7,N
1567280375.3,286047004.2,N
1567280395.1,286047001.9,N
1567280415.9,286047001.6,N
1567280435.7,286047002.4,N
1567280455.6,286047002.8,N
1567280475.4,286047001.9,N
1567280495.2,286047004.3,Y
1567280515.1,286046999.9,P
1567280516.0,286046999.9,N
1567280535.8,286047000.0,N
1567280555.7,286047000.9,N
1567280575.5,286047001.1,N
1567280595.3,286047000.5,N
1567280615.2,286047000.0,N
1567280635.0,286047000.2,N
1567280635.9,286047000.2,N
1567280655.8,286046999.7,N
1567280675.6,286047002.1,Y
1567280695.4,286047001.5,P
1567280715.3,286047003.5,P
1567280735.1,286047002.0,N
1567280755.9,286047001.7,N
1567280775.7,286047004.0,Y
1567280795.5,286047000.5,P
1567280815.4,286046999.8,N
1567280835.2,286047000.2,N
1567280855.0,286047002.4,Y
1567280856.0,286047002.4,P
1567280875.8,286047000.2,N
1567280895.6,286046999.9,N
1567280915.5,286047000.4,N
1567280935.3,286047000.1,N
1567280955.1,286047000.6,N
1567280975.9,286047000.9,N
1567280995.7,286047000.0,N
1567281015.6,286047000.9,N
1567281035.4,286047000.3,N
1567281055.2,286047000.2,N
1567281075.1,286047000.5,N
1567281076.0,286047000.5,N
1567281095.8,286047000.8,N
1567281115.6,286047000.5,N
1567281135.5,286047001.0,N
1567281155.3,286047000.7,N
1567281175.2,286047001.2,N
1567281195.9,286047000.6,N
1567281215.7,286047000.8,N
1567281235.6,286046998.3,Y
1567281255.4,286046998.8,P
1567281275.3,286046999.2,N
1567281295.1,286046999.0,N
1567281296.0,286046999.0,N
1567281315.8,286046996.5,Y
1567281335.7,286046999.1,P
1567281355.5,286046999.1,P
1567281375.4,286046998.8,P
1567281395.2,286046998.7,Y
1567281415.0,286046999.9,P
1567281415.9,286046999.9,N
1567281435.8,286047000.6,N
1567281455.6,286047000.5,N
1567281475.5,286046999.9,N
1567281495.3,286047002.7,Y
1567281515.1,286047002.7,P
1567281535.9,286047002.8,N
1567281555.7,286047000.6,N
1567281575.5,286047000.6,N
1567281595.4,286046999.7,N
